Location: Erdweis
(48.5167°N, 15.3500°E)
Time: 11:22:13
(UTC+00:00)

MetOp-A - Pass Details

Date: 18 September 2020
Orbit: 820 x 821 km, 98.5° (Epoch: 25 October)

Event Time Altitude Azimuth Distance (km) Brightness Sun altitude
Exits shadow 18:22:25 11° 147° (SSE) 2,322 6.0 -13.5°
Maximum altitude 18:27:24 58° 70° (ENE) 957 4.2 -14.3°
Drops below altitude 10° 18:32:40 10° 353° (N) 2,430 7.0 -15.1°
Sets 18:35:03 0° 349° (N) 3,366 7.8 -15.5°
